sat.trackr.live / text

‹ back to catalog

COSMOS 2559 (707K)

NORAD 54031 · 2022-130A

PAYLOAD ACTIVE UNKNOWN

§ Identity

Operator
Country
CIS
Launch date
2022-10-10
Launch site
PLMSC
Launch vehicle
Mass (kg)
RCS (m²)

Purposes: nav

External: N2YO · Heavens-Above · Gunter

§ Orbital elements

Epoch: 2026-05-23T23:54:37.453248Z

Period
675.73 min
Inclination
64.2867°
Eccentricity
0.0012040
Mean motion
2.13101609 rev/d
Perigee alt
19,099.2 km
Apogee alt
19,160.6 km
Semi-major
25,508.1 km
B*
0.0000e+0
RAAN
315.4211°
Arg perigee
176.3040°
Mean anomaly
183.7030°
Rev number
2,817

§ Raw data

COSMOS 2559 (707K)1 54031U 22130A   26143.99626682 -.00000046  00000+0  00000+0 0  99942 54031  64.2867 315.4211 0012040 176.3040 183.7030  2.13101609 28176

JSON: /api/v1/satellites/54031 · /tle

For live sub-satellite position, see the globe view (requires WebGL).

§ Visibility from observer

Set your observer location to see the next 7 days of passes ≥ 10°. The values pass through the URL so the page stays shareable.

No JS? Fill the form by hand. The geolocation button needs JavaScript.